Location: The Saddle
(36.8333°N, 80.3417°W)
Time: 14:21:38
(UTC-04:00)

SR - Pass Details

Date: 24 May 2024
Orbit: 580 x 858 km, 66.7° (Epoch: 14 June)

Event Time Altitude Azimuth Distance (km) Brightness Sun altitude
Rises 03:32:42 0° 336° (NNW) 2,838 ? -24.2°
Reaches altitude 10° 03:35:00 10° 340° (NNW) 1,914 ? -23.9°
Maximum altitude 03:39:12 59° 61° (ENE) 670 ? -23.4°
Enters shadow 03:41:10 29° 130° (SE) 1,072 ? -23.2°
